DMSP 5D-2 F13 DEB, 40560

Orbit data source: Space-Track

DMSP 5D-2 F13 DEB, 40560 is space debris in SSO originally from a launch on Fri, 24 Mar 1995 UTC launched from the Air Force Western Test Range (AFWTR). Debris objects in space refer to the collection of defunct objects orbiting the Earth. Examples of debris include non-operational satellites, rocket bodies, and fragments generated from explosions, collisions, or faulty payload assembly.

Loading next visibility...
Identifier
40560, 1995-015DT
Orbit
SSO
Country
Flag of USUS
Related business
Manufacturer
Unknown
Mission
Spacecraft
Bus & Motor
Unknown
Mass
Unknown
Launch date (UTC)
1995-03-24 (31 years ago)
Launch vehicle
Unknown
Launch site
Air Force Western Test Range (AFWTR)
Object type
Payload
Rocket body
Debris
Shape & HBR
Unknown shape, 0.1 m
Radar Cross Section
Medium (>0.1 m² and <1 m²)

Expand to show TLE details & history
Last TLE update: 3 days ago

TLE from 3 days ago
0 DMSP 5D-2 F13 DEB
1 40560U 95015DT  26170.36328325  .00003844  00000-0  11070-2 0  9993
2 40560  98.6001 214.4164 0010863 200.1017 159.9748 14.45287817583749
Epoch: 2026-06-19T08:43Z
TLE epoch observation values (Epoch: 2026-06-19T08:43:07.672Z)
Latitude
0.00002°
Longitude
176.0411°
Altitude
751.302 km
Speed
7.475 km/s
True Right ascension
14h 17m 39s
True Declination
0° 00' 00"
Sunlit
Object was in full shadow at epoch
Visualization orbit readout
Latitude
Unknown
Longitude
Unknown
Altitude
Unknown
Speed
Unknown
Apparent Right ascension
Unknown
Apparent Declination
Unknown
Sunlit
N/A
Visualization observer readout
Local Sidereal Time
21:37:58
Azimuth
Unknown
Elevation
Unknown
Doppler factor
Unknown
Orbital elements
Apogee altitude
745.931 km
Perigee altitude
730.47 km
Semi-major axis
7,116.337 km
Eccentricity
0.00109
Inclination
98.6001°
RAAN
214.4164°
Arg. of periapsis
200.1017°
True anomaly
160.01737°
Mean anomaly
159.9748°
Eccentric anomaly
159.99609°
Mean motion
3.61542 °/min
Orbital period
99.57 mins
BSTAR
0.001107

Documentation

Showing up to 5 results
|